Weather History for KFCM - February, 2014

Change the Weather History Date:

Saturday, February 1, 2014

  Actual Average Record
Temperature  
Mean Temperature 10 °F -  
Max Temperature 19 °F 24 °F 37 °F (2003)
Min Temperature 0 °F 9 °F -13 °F (2013)
Degree Days  
Heating Degree Days 55    
Moisture  
Dew Point 2 °F    
Average Humidity 68    
Maximum Humidity 76    
Minimum Humidity 58    
Precipitation  
Precipitation 0.00 in - - ()
Sea Level Pressure  
Sea Level Pressure 30.05 in    
Wind  
Wind Speed 8 mph (WSW)    
Max Wind Speed 15 mph    
Max Gust Speed 21 mph    
Visibility 10 miles    
Events      
Averages and records for this station are not official NWS values.
T = Trace of Precipitation, MM = Missing Value Source: NWS Daily Summary

Daily Weather History Graph

Daily Weather History Graph

Search for Another Location

Airport or City:

Trip Planner

Search our weather history database for the weather conditions in past years. The results will help you decide how hot, cold, wet, or windy it might be!

Date:

Astronomy

Feb. 01, 2014 Rise Set
Actual Time 7:33 AM CST 5:22 PM CST
Civil Twilight 7:02 AM CST 5:53 PM CST
Nautical Twilight 6:26 AM CST 6:28 PM CST
Astronomical Twilight 5:52 AM CST 7:02 PM CST
Moon 8:15 AM CST (2/1) 8:07 PM CST (2/1)
Length of Visible Light 10h 51m
Length of Day
9h 49m
Waxing Crescent, 5% of the Moon is Illuminated
Feb 1
Waxing Crescent
Feb 6
First Quarter
Feb 14
Full
Feb 22
Last Quarter
Mar 1
New

Hourly Weather History & Observations

Time (CST) Temp. Windchill Dew Point Humidity Pressure Visibility Wind Dir Wind Speed Gust Speed Precip Events Conditions
12:53 AM 3.0 °F -4.4 °F -4.0 °F 73% 30.05 in 10.0 mi South 3.5 mph - N/A   Clear
1:53 AM 3.9 °F -8.2 °F -2.0 °F 76% 30.03 in 10.0 mi South 6.9 mph - N/A   Clear
2:53 AM 3.9 °F -8.2 °F -2.9 °F 73% 30.02 in 10.0 mi SSE 6.9 mph - N/A   Clear
3:53 AM 7.0 °F -6.6 °F -0.9 °F 70% 30.01 in 10.0 mi South 9.2 mph - N/A   Mostly Cloudy
4:53 AM 8.1 °F -0.5 °F -0.0 °F 70% 29.98 in 10.0 mi SSE 4.6 mph - N/A   Overcast
5:53 AM 8.1 °F -0.5 °F -0.0 °F 70% 29.97 in 10.0 mi SSE 4.6 mph - N/A   Overcast
6:45 AM 10.4 °F -0.4 °F 1.4 °F 67% 29.90 in 10.0 mi South 6.9 mph - N/A   Overcast
6:53 AM 10.0 °F -1.9 °F 1.0 °F 67% 29.97 in 10.0 mi South 8.1 mph - N/A   Overcast
7:15 AM 10.4 °F -0.4 °F 1.4 °F 67% 29.91 in 10.0 mi South 6.9 mph - N/A   Overcast
7:53 AM 10.9 °F 1.4 °F 3.0 °F 70% 29.97 in 9.0 mi South 5.8 mph - N/A   Overcast
8:53 AM 12.9 °F 5.2 °F 5.0 °F 71% 29.98 in 9.0 mi SSW 4.6 mph - 0.00 in   Overcast
9:53 AM 12.9 °F 3.8 °F 6.1 °F 74% 30.00 in 10.0 mi SSW 5.8 mph - N/A   Scattered Clouds
10:53 AM 18.0 °F 6.9 °F 10.0 °F 71% 30.00 in 10.0 mi West 9.2 mph - N/A   Clear
11:53 AM 19.9 °F 8.6 °F 10.9 °F 68% 30.01 in 10.0 mi West 10.4 mph - N/A   Clear
12:53 PM 19.9 °F 7.9 °F 10.0 °F 65% 30.01 in 10.0 mi West 11.5 mph - N/A   Clear
1:53 PM 19.9 °F 8.6 °F 10.0 °F 65% 30.01 in 10.0 mi NW 10.4 mph - N/A   Clear
2:53 PM 19.9 °F 6.7 °F 9.0 °F 62% 30.04 in 10.0 mi WNW 13.8 mph - N/A   Partly Cloudy
3:31 PM 19.4 °F 7.9 °F 8.6 °F 63% 30.00 in 10.0 mi WNW 10.4 mph - N/A   Mostly Cloudy
3:53 PM 19.0 °F 5.0 °F 8.1 °F 62% 30.06 in 10.0 mi West 15.0 mph 20.7 mph N/A   Overcast
4:41 PM 17.6 °F 3.7 °F 5.0 °F 58% 30.03 in 10.0 mi West 13.8 mph - N/A   Scattered Clouds
4:53 PM 16.0 °F 2.3 °F 5.0 °F 62% 30.09 in 10.0 mi West 12.7 mph - N/A   Clear
5:53 PM 10.9 °F -2.6 °F 1.9 °F 67% 30.13 in 10.0 mi West 10.4 mph - N/A   Clear
6:53 PM 8.1 °F -6.2 °F -0.9 °F 67% 30.17 in 10.0 mi WNW 10.4 mph - N/A   Clear
7:53 PM 6.1 °F -9.5 °F -2.9 °F 67% 30.19 in 10.0 mi WNW 11.5 mph - N/A   Clear
8:53 PM 3.9 °F -11.3 °F -5.1 °F 66% 30.22 in 10.0 mi WNW 10.4 mph - N/A   Clear
9:53 PM 1.9 °F -14.7 °F -6.0 °F 69% 30.24 in 10.0 mi WNW 11.5 mph - N/A   Clear
10:53 PM 1.0 °F -15.8 °F -8.0 °F 66% 30.25 in 10.0 mi WNW 11.5 mph - N/A   Clear
11:53 PM -0.9 °F -14.1 °F -9.0 °F 69% 30.27 in 10.0 mi WNW 6.9 mph - N/A   Clear